St. Joseph, KS

11:54 AM CDT on September 15, 2019 (GMT -0500)
Rosecrans Memorial

Weather History for KSTJ - July, 2019

Change the Weather History Date:

Wednesday, July 24, 2019

  Actual Average Record
Temperature  
Mean Temperature 70 °F -  
Max Temperature 82 °F - 108 °F (1934)
Min Temperature 59 °F - 54 °F (2003)
Cooling Degree Days 6    
Growing Degree Days 20 (Base 50)    
Moisture  
Dew Point 60 °F    
Average Humidity 76    
Maximum Humidity 97    
Minimum Humidity 42    
Precipitation  
Precipitation 0.00 in - 1.56 in (1979)
Sea Level Pressure  
Sea Level Pressure 30.19 in    
Wind  
Wind Speed 2 mph (South)    
Max Wind Speed 8 mph    
Max Gust Speed -    
Visibility 7 miles    
Events Fog    
T = Trace of Precipitation, MM = Missing Value Source: NWS Daily Summary

Daily Weather History Graph

Daily Weather History Graph

Search for Another Location

Airport or City:

Astronomy

Jul. 24, 2019 Rise Set
Actual Time 6:11 AM CDT 8:40 PM CDT
Civil Twilight 5:40 AM CDT 9:11 PM CDT
Nautical Twilight 5:01 AM CDT 9:49 PM CDT
Astronomical Twilight 4:19 AM CDT 10:32 PM CDT
Moon 12:29 AM CDT (7/24) 1:22 PM CDT (7/24)
Length of Visible Light 15h 31m
Length of Day
14h 29m
Waning Gibbous, 53% of the Moon is Illuminated
Jul 24
Waning Gibbous
Jul 24
Last Quarter
Jul 31
New
Aug 7
First Quarter
Aug 15
Full

Hourly Weather History & Observations

Time (CDT) Temp. Heat Index Dew Point Humidity Pressure Visibility Wind Dir Wind Speed Gust Speed Precip Events Conditions
12:53 AM 63.0 °F - 60.1 °F 90% 30.19 in 10.0 mi Calm Calm - N/A   Partly Cloudy
1:53 AM 62.1 °F - 59.0 °F 90% 30.19 in 10.0 mi Calm Calm - N/A   Clear
2:53 AM 61.0 °F - 59.0 °F 93% 30.19 in 10.0 mi NNW 3.5 mph - N/A   Clear
3:53 AM 61.0 °F - 57.9 °F 90% 30.20 in 10.0 mi Calm Calm - N/A   Clear
4:53 AM 60.1 °F - 57.0 °F 90% 30.21 in 4.0 mi Calm Calm - N/A   Scattered Clouds
4:56 AM 59.0 °F - 57.0 °F 93% 30.23 in 1.8 mi Calm Calm - N/A   Mostly Cloudy
5:05 AM 60.1 °F - 57.9 °F 93% 30.23 in 2.0 mi Calm Calm - N/A   Mostly Cloudy
5:12 AM 59.0 °F - 57.0 °F 93% 30.23 in 0.8 mi Calm Calm - N/A   Mostly Cloudy
5:25 AM 60.1 °F - 57.9 °F 93% 30.23 in 1.8 mi Calm Calm - N/A   Mostly Cloudy
5:29 AM 61.0 °F - 59.0 °F 93% 30.23 in 3.0 mi Calm Calm - N/A   Mostly Cloudy
5:53 AM 61.0 °F - 59.0 °F 93% 30.21 in 1.2 mi Calm Calm - N/A   Overcast
5:55 AM 61.0 °F - 59.0 °F 93% 30.23 in 0.5 mi Calm Calm - N/A Fog Fog
6:53 AM 62.1 °F - 61.0 °F 96% 30.22 in 0.2 mi Calm Calm - N/A Fog Fog
7:53 AM 64.9 °F - 64.0 °F 97% 30.23 in 0.2 mi Calm Calm - N/A Fog Fog
8:08 AM 66.0 °F - 64.9 °F 96% 30.25 in 1.0 mi Calm Calm - N/A   Mist
8:12 AM 66.0 °F - 64.9 °F 96% 30.25 in 3.0 mi Calm Calm - N/A   Mostly Cloudy
8:16 AM 66.0 °F - 64.9 °F 96% 30.25 in 1.8 mi Calm Calm - N/A   Mostly Cloudy
8:30 AM 66.0 °F - 64.0 °F 93% 30.25 in 3.0 mi Calm Calm - N/A   Mostly Cloudy
8:41 AM 66.9 °F - 64.9 °F 93% 30.25 in 6.0 mi Calm Calm - N/A   Mostly Cloudy
8:53 AM 68.0 °F - 66.0 °F 93% 30.23 in 8.0 mi Calm Calm - N/A   Partly Cloudy
10:53 AM 75.9 °F - 57.0 °F 52% 30.22 in 10.0 mi SW 4.6 mph - N/A   Mostly Cloudy
11:53 AM 75.9 °F - 57.9 °F 54% 30.20 in 10.0 mi West 3.5 mph - N/A   Mostly Cloudy
12:53 PM 80.1 °F 80.7 °F 59.0 °F 48% 30.19 in 10.0 mi Variable 5.8 mph - N/A   Partly Cloudy
1:53 PM 80.1 °F 80.2 °F 55.9 °F 43% 30.18 in 10.0 mi SSW 4.6 mph - N/A   Partly Cloudy
2:53 PM 80.1 °F 80.4 °F 57.0 °F 45% 30.17 in 10.0 mi South 5.8 mph - N/A   Mostly Cloudy
3:53 PM 82.0 °F 81.7 °F 57.0 °F 42% 30.14 in 10.0 mi SSW 5.8 mph - N/A   Scattered Clouds
4:53 PM 81.0 °F 81.1 °F 57.9 °F 45% 30.13 in 10.0 mi South 8.1 mph - N/A   Clear
5:53 PM 81.0 °F 81.0 °F 57.0 °F 44% 30.12 in 10.0 mi South 8.1 mph - N/A   Partly Cloudy
6:53 PM 80.1 °F 80.4 °F 57.0 °F 45% 30.11 in 10.0 mi South 5.8 mph - N/A   Clear
7:53 PM 77.0 °F - 59.0 °F 54% 30.11 in 10.0 mi SSE 5.8 mph - N/A   Clear
8:11 PM 77.0 °F - 57.9 °F 52% 30.12 in 9.0 mi SE 5.8 mph - N/A   Partly Cloudy
8:28 PM 75.0 °F - 57.9 °F 55% 30.12 in 10.0 mi SE 5.8 mph - N/A   Mostly Cloudy
8:53 PM 73.0 °F - 61.0 °F 66% 30.11 in 10.0 mi SE 3.5 mph - N/A   Mostly Cloudy
9:00 PM 73.0 °F - 59.0 °F 61% 30.12 in 10.0 mi SE 3.5 mph - N/A   Scattered Clouds
9:53 PM 66.9 °F - 62.1 °F 84% 30.11 in 10.0 mi Calm Calm - N/A   Clear
10:53 PM 66.9 °F - 62.1 °F 84% 30.11 in 9.0 mi Calm Calm - N/A   Clear
11:53 PM 68.0 °F - 61.0 °F 78% 30.12 in 10.0 mi South 5.8 mph - N/A   Clear